This demonstration page uses our WeatherBlox Daily Observations layout. Learn more.

Left ArrowRight Arrow

44.31136, -96.79839

Hourly Observations for June 20, 2019

Temp ( °F °C ) Dew Point ( °F °C ) Humidity (%) Winds ( mph kmh ) Pressure ( in mb ) Visibility ( mi km ) Precip ( " mm )
12:56 am 00:56 Cloudy 65 18.3 55 12.8 70 70 ESE 8 13 29.73 1007 10 16 0.00 0.00
1:56 am 01:56 Mostly Cloudy 65 18.3 55 12.8 70 70 ESE 12 19 29.72 1006 10 16 0.00 0.00
2:56 am 02:56 Cloudy 65 18.3 55 12.8 70 70 ESE 10 17 29.72 1007 10 16 0.00 0.00
3:56 am 03:56 Mostly Cloudy 63 17.2 55 12.8 76 76 SE 10 17 29.72 1006 10 16 0.00 0.00
4:56 am 04:56 Partly Cloudy 62 16.7 55 12.8 78 78 ESE 12 19 29.70 1006 10 16 0.00 0.00
5:56 am 05:56 Mostly Cloudy 62 16.7 56 13.3 80 80 ESE 10 17 29.71 1006 10 16 0.00 0.00
6:56 am 06:56 Sunny 62 16.7 56 13.3 80 80 SE 12 19 29.72 1006 10 16 0.00 0.00
7:56 am 07:56 Cloudy 63 17.2 57 13.9 81 81 S 13 20 29.74 1007 10 16 0.00 0.00
8:56 am 08:56 Mostly Cloudy with Light Rain 60 15.6 59 15 96 96 SSE 18 30 29.66 1005 9 14 0.01 0.25
9:50 am 09:50 Cloudy with Light Rain 63 17 61 16 94 94 S 17 28 29.68 1005 10 16 0.01 0.25
9:56 am 09:56 Cloudy with Light Rain 62 16.7 60 15.6 93 93 S 12 19 29.74 1007 10 16 0.01 0.25
10:35 am 10:35 Cloudy with Light Rain 63 17 61 16 94 94 S 9 15 29.70 1006 10 16 0.01 0.25
10:56 am 10:56 Cloudy with Rain 62 16.7 60 15.6 93 93 SSW 16 26 29.75 1008 6 10 0.02 0.51
11:07 am 11:07 Cloudy with Heavy Rain 61 16 57 14 88 88 S 13 20 29.69 1006 2 3 0.00 0.00
11:14 am 11:14 Cloudy with Light Rain 59 15 57 14 94 94 S 13 20 29.70 1006 3 5 0.00 0.00
11:56 am 11:56 Mostly Cloudy 64 17.8 61 16.1 90 90 SE 14 22 29.72 1007 10 16 0.00 0.00
12:12 pm 12:12 Mostly Cloudy 64 18 61 16 88 88 SSE 12 19 29.66 1004 10 16 0.00 0.00
12:56 pm 12:56 Cloudy with Light Rain 67 19.4 63 17.2 87 87 S 13 20 29.72 1006 10 16 0.00 0.03
1:16 pm 13:16 Cloudy with Light Rain 66 19 63 17 88 88 S 16 26 29.65 1004 6 10 0.00 0.03
1:56 pm 13:56 Mostly Cloudy 72 22.2 63 17.2 73 73 WSW 18 30 29.71 1006 10 16 0.01 0.25
2:06 pm 14:06 Partly Cloudy 72 22 63 17 73 73 WSW 15 24 29.64 1004 10 16 0.00 0.00
2:56 pm 14:56 Partly Cloudy 73 22.8 61 16.1 66 66 WSW 16 26 29.71 1006 10 16 0.01 0.25
3:56 pm 15:56 undefined 75 23.9 58 14.4 55 55 W 21 33 29.72 1007 10 16 0.00 0.00
4:56 pm 16:56 Mostly Sunny 75 23.9 57 13.9 54 54 W 16 26 29.73 1007 10 16 0.01 0.25
5:56 pm 17:56 Partly Cloudy 75 23.9 57 13.9 54 54 W 16 26 29.75 1008 10 16 0.00 0.00
6:39 pm 18:39 Mostly Sunny 73 23 55 13 53 53 WNW 14 22 29.67 1005 10 16 0.00 0.00
6:56 pm 18:56 Sunny 74 23.3 56 13.3 54 54 WNW 10 17 29.76 1008 10 16 0.00 0.00
7:56 pm 19:56 Sunny 72 22.2 58 14.4 61 61 N 9 15 29.76 1008 10 16 0.00 0.00
8:56 pm 20:56 Sunny 68 20 59 15 73 73 NNE 7 11 29.78 1009 10 16 0.00 0.00
9:56 pm 21:56 Clear 65 18.3 58 14.4 78 78 NNE 3 6 29.80 1009 10 16 0.00 0.00
10:56 pm 22:56 Clear 62 16.7 58 14.4 86 86 Calm 29.84 1010 10 16 0.00 0.00
11:56 pm 23:56 Clear 60 15.6 56 13.3 86 86 Calm 29.83 1010 10 16 0.00 0.00

Powered by AerisWeather